Location: Anmer
(52.8333°N, 0.5833°E)
Time: 11:01:23
(UTC+00:00)

Cosmos 2142 Rocket - Pass Details

Date: 15 May 2026
Orbit: 951 x 1005 km, 83.0° (Epoch: 8 June)

Event Time Altitude Azimuth Distance (km) Brightness Sun altitude
Exits shadow 23:30:58 27° 194° (SSW) 1,790 5.3 -17.9°
Maximum altitude 23:34:38 84° 280° (W) 988 4.5 -18.0°
Drops below altitude 10° 23:40:52 10° 10° (N) 2,716 8.0 -18.1°
Sets 23:43:22 0° 11° (N) 3,660 9.0 -18.1°
